CW1020 Weather Reports


time (UTC)temp
F
wind
direction
speed
knots
gust
knots
rain 1hr
in
rain 24hr
in
rain mn
in
humidity
%
barometer
mb
20260504215003 52 320 7.8 14.8 0.00 0.00 0.00 63 1014.2
20260504214504 52 311 6.1 14.8 0.00 0.00 0.00 64 1014.4
20260504214003 52 317 7.0 8.7 0.00 0.00 0.00 64 1014.5
20260504213503 51 313 7.8 9.6 0.00 0.00 0.00 69 1014.6
20260504213004 50 307 7.0 12.2 0.00 0.00 0.00 71 1014.8
20260504212502 50 304 7.0 10.4 0.00 0.00 0.00 71 1014.8
20260504211502 49 314 8.7 14.8 0.00 0.00 0.00 73 1015.0
20260504210003 49 311 7.8 13.9 0.00 0.00 0.00 74 1015.0
20260504205502 49 310 8.7 11.3 0.00 0.00 0.00 73 1015.0
20260504205003 49 311 8.7 10.4 0.00 0.00 0.00 74 1014.9
20260504204503 49 311 7.8 12.2 0.00 0.00 0.00 74 1014.8
20260504204002 49 317 7.8 13.0 0.00 0.00 0.00 74 1014.9
20260504203502 49 317 8.7 10.4 0.00 0.00 0.00 75 1014.9
20260504203002 49 319 7.8 13.0 0.00 0.00 0.00 76 1014.8
20260504202502 49 317 7.8 12.2 0.00 0.00 0.00 75 1014.8
20260504202002 49 313 7.0 13.9 0.00 0.00 0.00 75 1014.7
20260504201502 49 322 6.1 9.6 0.00 0.00 0.00 76 1014.7
20260504201002 49 309 5.2 7.8 0.00 0.00 0.00 76 1014.7
20260504200502 48 314 4.3 7.8 0.00 0.00 0.00 77 1014.8
20260504200003 48 316 4.3 7.8 0.00 0.00 0.00 79 1015.1
20260504195502 48 296 6.1 7.0 0.00 0.00 0.00 78 1015.3
20260504195002 47 290 7.0 8.7 0.00 0.00 0.00 80 1015.3
20260504194503 47 292 8.7 9.6 0.00 0.00 0.00 80 1015.3
20260504194002 47 284 8.7 12.2 0.00 0.00 0.00 79 1015.2
20260504193502 47 264 8.7 11.3 0.00 0.00 0.00 79 1015.4
20260504193002 47 266 7.8 13.9 0.00 0.00 0.00 80 1015.4
20260504192003 46 247 7.8 12.2 0.00 0.00 0.00 83 1015.3
20260504191503 45 276 5.2 9.6 0.00 0.00 0.00 84 1015.4
20260504190502 46 257 4.3 7.8 0.00 0.00 0.00 82 1015.4
20260504190003 46 301 7.0 5.2 0.00 0.00 0.00 81 1015.4
20260504185502 46 266 7.0 13.0 0.00 0.00 0.00 79 1015.4
20260504185002 46 254 7.0 9.6 0.00 0.00 0.00 79 1015.3
20260504184503 46 257 7.0 10.4 0.00 0.00 0.00 79 1015.4
20260504184002 46 245 7.0 12.2 0.00 0.00 0.00 80 1015.3
20260504183003 45 255 6.1 13.0 0.00 0.00 0.00 79 1015.2
20260504182502 45 231 7.0 10.4 0.00 0.00 0.00 80 1015.3
20260504181503 45 242 7.0 12.2 0.00 0.00 0.00 79 1015.2
20260504180502 45 259 5.2 7.0 0.00 0.00 0.00 80 1015.2
20260504180004 45 257 6.1 6.1 0.00 0.00 0.00 79 1015.3
20260504175502 45 268 5.2 12.2 0.00 0.00 0.00 80 1015.3
20260504175003 46 256 4.3 9.6 0.00 0.00 0.00 80 1015.4
20260504174502 45 273 2.6 7.8 0.00 0.00 0.00 80 1015.5
20260504173502 45 285 5.2 6.1 0.00 0.00 0.00 80 1015.2
20260504173003 45 261 5.2 8.7 0.00 0.00 0.00 80 1015.1
20260504172502 45 240 6.1 7.8 0.00 0.00 0.00 80 1015.1
20260504172003 45 251 6.1 10.4 0.00 0.00 0.00 80 1015.1
20260504171502 45 252 4.3 10.4 0.00 0.00 0.00 80 1015.0
20260504171003 45 254 4.3 8.7 0.00 0.00 0.00 81 1014.9
20260504170503 44 261 6.1 7.8 0.00 0.00 0.00 81 1014.9
20260504151003 43 314 6.1 12.2 0.00 0.00 0.00 83 1014.9
20260504150502 43 321 4.3 11.3 0.00 0.00 0.00 83 1014.9
20260504141003 42 308 6.1 10.4 0.00 0.00 0.00 82 1014.5
20260504140502 43 316 6.1 10.4 0.00 0.00 0.00 82 1014.5
20260504130502 44 307 4.3 7.8 0.00 0.00 0.00 79 1014.0
20260504100503 45 299 2.6 6.1 0.00 0.00 0.00 78 1014.0
20260504082003 46 311 8.7 12.2 0.00 0.00 0.00 77 1014.3
20260504081502 46 316 7.8 13.0 0.00 0.00 0.00 76 1014.3
20260504081003 46 314 7.8 13.9 0.00 0.00 0.00 76 1014.4
20260504080504 46 315 7.0 11.3 0.00 0.00 0.00 76 1014.5
20260504050504 49 303 4.3 3.5 0.00 0.00 0.00 72 1014.3
20260504050005 50 310 3.5 7.8 0.00 0.00 0.00 72 1014.1
20260504045503 50 321 1.7 7.8 0.00 0.00 0.00 71 1014.0
20260504044003 50 321 1.7 5.2 0.00 0.00 0.00 71 1013.9
20260504043503 50 330 3.5 1.7 0.00 0.00 0.00 71 1013.8
20260504043003 50 279 4.3 7.8 0.00 0.00 0.00 71 1013.8
20260504042503 50 317 5.2 7.0 0.00 0.00 0.00 71 1013.6
20260504042004 50 307 7.0 11.3 0.00 0.00 0.00 71 1013.5
20260504041003 50 316 7.0 13.0 0.00 0.00 0.00 71 1013.3
20260504040503 51 313 6.1 10.4 0.00 0.00 0.00 71 1013.2
20260504040004 51 308 5.2 9.6 0.00 0.00 0.00 70 1013.2
20260504035003 52 299 5.2 7.0 0.00 0.00 0.00 69 1013.0
20260504034003 53 303 7.0 10.4 0.00 0.00 0.00 68 1012.9
20260504033504 53 291 9.6 10.4 0.00 0.00 0.00 67 1012.8
20260504033004 54 282 10.4 13.9 0.00 0.00 0.00 67 1012.7
20260504032503 54 288 8.7 13.9 0.00 0.00 0.00 67 1012.5
20260504031503 54 290 7.8 12.2 0.00 0.00 0.00 66 1012.3
20260504031003 55 287 7.8 11.3 0.00 0.00 0.00 66 1012.2
20260504030503 55 297 7.8 15.6 0.00 0.00 0.00 66 1012.3
20260504030003 55 291 8.7 12.2 0.00 0.00 0.00 66 1012.3
20260504025503 55 302 8.7 13.0 0.00 0.00 0.00 65 1012.0
20260504025004 56 299 8.7 12.2 0.00 0.00 0.00 65 1012.2
20260504023503 56 315 7.0 13.0 0.00 0.00 0.00 65 1012.0
20260504023004 56 286 7.0 10.4 0.00 0.00 0.00 64 1012.1
20260504022504 56 277 7.0 8.7 0.00 0.00 0.00 64 1012.2
20260504022003 56 302 7.0 13.9 0.00 0.00 0.00 64 1012.1
20260504021503 57 304 7.8 11.3 0.00 0.00 0.00 63 1011.9
20260504021003 57 306 7.8 10.4 0.00 0.00 0.00 63 1011.6
20260504020503 57 307 8.7 11.3 0.00 0.00 0.00 62 1011.4
20260504020004 58 305 9.6 11.3 0.00 0.00 0.00 62 1011.5
20260504015504 58 309 9.6 14.8 0.00 0.00 0.00 61 1011.7
20260504015004 58 308 8.7 12.2 0.00 0.00 0.00 61 1011.5
20260504014503 59 306 7.8 13.0 0.00 0.00 0.00 60 1011.6
20260504014003 59 309 7.8 10.4 0.00 0.00 0.00 59 1011.6
20260504013503 59 278 7.8 9.6 0.00 0.00 0.00 59 1011.6
20260504013003 60 283 7.8 13.0 0.00 0.00 0.00 59 1011.6
20260504012003 60 302 7.8 13.0 0.00 0.00 0.00 59 1011.6
20260504011504 60 314 7.8 15.6 0.00 0.00 0.00 58 1011.5
20260504011003 61 298 9.6 11.3 0.00 0.00 0.00 57 1011.6
20260504010503 61 280 8.7 12.2 0.00 0.00 0.00 57 1011.5
20260504010005 61 310 8.7 14.8 0.00 0.00 0.00 57 1011.6
20260504005504 61 298 8.7 10.4 0.00 0.00 0.00 57 1011.8
20260504005004 61 307 8.7 12.2 0.00 0.00 0.00 56 1011.7
20260504004503 61 304 8.7 13.0 0.00 0.00 0.00 57 1011.7
20260504004003 60 312 7.8 16.5 0.00 0.00 0.00 56 1011.6
20260504003503 61 316 8.7 12.2 0.00 0.00 0.00 56 1011.6
20260504003004 61 294 8.7 10.4 0.00 0.00 0.00 56 1011.5
20260504002003 62 291 7.8 13.9 0.00 0.00 0.00 56 1011.4
20260504001504 62 300 8.7 12.2 0.00 0.00 0.00 57 1011.4
20260504001003 61 309 9.6 13.9 0.00 0.00 0.00 57 1011.4
20260504000504 61 299 8.7 12.2 0.00 0.00 0.00 57 1011.3
20260504000003 62 299 9.6 12.2 0.00 0.00 0.00 56 1011.6
20260503235003 62 311 9.6 16.5 0.00 0.00 0.00 57 1011.7
20260503234503 61 320 8.7 13.9 0.00 0.00 0.00 57 1011.7
20260503234004 62 308 9.6 12.2 0.00 0.00 0.00 57 1011.7
20260503233503 62 308 10.4 13.9 0.00 0.00 0.00 57 1011.7
20260503233005 62 310 10.4 15.6 0.00 0.00 0.00 57 1011.7
20260503232503 62 301 11.3 16.5 0.00 0.00 0.00 56 1011.7
20260503232004 62 295 12.2 15.6 0.00 0.00 0.00 58 1011.7
20260503231504 62 318 11.3 16.5 0.00 0.00 0.00 58 1011.7
20260503231003 62 309 10.4 15.6 0.00 0.00 0.00 58 1011.6
20260503230504 62 306 10.4 14.8 0.00 0.00 0.00 58 1011.6
20260503230003 62 305 10.4 13.9 0.00 0.00 0.00 58 1011.8
20260503225504 62 311 10.4 13.9 0.00 0.00 0.00 56 1011.9
20260503225003 63 316 11.3 15.6 0.00 0.00 0.00 57 1011.9
20260503224503 63 317 12.2 15.6 0.00 0.00 0.00 57 1012.0
20260503224005 62 317 11.3 15.6 0.00 0.00 0.00 57 1011.9
20260503223503 63 318 10.4 16.5 0.00 0.00 0.00 56 1011.9
20260503223004 63 320 10.4 15.6 0.00 0.00 0.00 58 1012.0
20260503222503 62 319 11.3 15.6 0.00 0.00 0.00 59 1011.9
20260503222005 62 319 11.3 17.4 0.00 0.00 0.00 58 1012.0
20260503221503 62 320 10.4 19.1 0.00 0.00 0.00 57 1012.0
20260503221003 62 316 8.7 14.8 0.00 0.00 0.00 58 1012.1
20260503220504 62 307 10.4 13.9 0.00 0.00 0.00 58 1012.1
20260503220003 63 316 10.4 17.4 0.00 0.00 0.00 58 1012.2